Wind_Speed
118 116 113 111 110 109 105 102 93 82 75 77 70 68 69 70 63 58 56 59 57 56 52 52 55 52 50 52 56 57 56 57 54 54 49 57 57 52
118 118 115 116 115 115 111 105 94 88 81 69 64 64 62 62 60 57 55 59 58 53 54 53 53 54 55 57 56 58 59 58 64 59 50 55 57 66
114 117 114 112 112 108 105 100 92 87 84 71 64 58 55 48 51 53 52 57 58 56 53 51 55 54 53 55 59 58 60 54 56 59 57 62 67 69
106 108 108 107 108 104 102 98 94 88 88 79 68 63 59 50 49 54 51 50 54 47 53 49 52 48 47 48 56 62 59 52 52 57 61 65 66 65
99 101 99 99 101 100 97 98 95 88 90 82 77 71 64 64 57 57 59 59 56 54 60 66 62 60 61 54 53 56 62 59 56 63 63 62 62 61
91 95 95 96 96 95 92 98 97 94 89 86 85 79 74 67 64 67 66 68 62 56 63 62 67 70 69 65 60 58 62 64 66 67 70 70 65 62
85 88 89 90 91 86 91 96 96 93 91 86 85 78 74 75 75 77 76 71 73 68 74 68 77 77 79 77 75 70 70 71 71 67 67 67 68 69
79 82 83 83 86 80 88 92 94 93 94 83 87 84 74 72 77 82 77 81 81 77 74 78 85 81 80 82 77 80 82 83 78 82 79 78 74 71
76 79 79 79 82 78 86 89 92 94 97 93 94 93 84 79 81 90 92 86 87 91 87 89 87 91 90 86 88 89 87 88 86 79 78 79 77 78
73 74 76 78 79 78 85 88 93 94 99 99 99 97 93 92 90 92 87 88 87 91 91 93 95 92 94 94 95 94 90 87 87 83 85 86 86 81
69 70 74 76 76 79 86 90 95 95 101 103 103 104 101 99 99 95 95 94 99 94 98 101 103 101 102 100 96 99 99 96 97 92 92 90 92 92
62 67 70 73 75 77 85 91 96 98 100 104 105 107 109 105 103 103 101 100 98 102 102 103 104 109 109 107 108 106 102 101 101 97 97 101 100 96
58 63 67 69 73 75 80 89 97 100 101 105 106 109 110 112 109 110 110 108 104 101 103 105 107 109 110 108 107 105 105 103 103 104 105 104 105 106
56 59 64 67 70 72 78 84 91 96 105 107 109 112 113 116 116 114 113 115 113 112 112 113 111 110 109 109 112 113 114 113 112 112 109 106 108 109
56 59 61 64 66 70 74 80 87 93 98 105 110 111 114 114 115 117 116 115 116 115 116 114 114 115 115 116 117 120 120 120 117 117 118 120 119 120
54 57 60 63 65 68 71 74 81 88 93 97 103 110 114 117 117 118 121 119 118 119 118 119 120 117 118 119 121 124 126 128 129 130 129 130 131 130
54 56 59 62 65 68 70 72 75 81 88 93 96 104 111 117 119 121 123 127 125 124 125 126 127 128 127 130 130 130 132 133 136 138 138 138 139 140
56 57 58 59 60 62 65 67 70 74 78 83 90 95 99 105 112 120 126 129 131 133 133 132 132 136 138 138 138 140 140 140 141 144 143 139 141 143
55 55 56 58 59 61 63 64 65 66 68 72 77 83 88 92 97 102 108 111 121 132 134 133 133 135 136 137 139 136 135 141 145 147 149 151 150 153
46 47 49 50 51 53 56 59 61 64 66 68 72 77 80 83 85 87 90 94 98 103 107 111 116 122 127 132 135 136 126 127 130 132 130 126 126 124
44 45 44 45 46 48 50 52 54 56 59 61 63 66 68 72 75 79 83 86 89 93 96 99 103 105 108 109 111 113 110 107 111 112 108 107 106 106
41 41 41 42 43 43 44 45 46 48 50 53 56 59 61 64 67 70 73 76 79 81 84 85 88 90 92 95 97 99 98 94 94 97 94 92 92 91
34 34 35 36 36 36 37 38 40 41 43 44 46 48 51 53 56 58 60 62 64 66 68 70 73 75 76 76 77 78 78 76 73 74 75 74 71 71
Wind_Direction
221 222 224 226 228 232 234 238 239 245 238 239 238 240 243 246 246 243 245 247 248 249 251 253 251 254 255 254 256 258 250 248 245 248 255 266 264 274
227 226 229 230 231 233 234 237 238 238 232 231 231 236 239 239 239 245 248 252 256 257 256 254 256 256 249 253 254 253 254 252 248 249 250 261 263 271
226 228 229 231 233 234 237 237 233 231 229 223 228 230 230 235 236 241 255 256 256 255 254 253 254 254 255 250 250 252 251 259 254 249 253 257 261 269
224 227 228 230 231 232 234 232 230 227 224 222 224 225 227 232 238 240 243 246 249 251 247 252 253 254 261 254 254 252 252 254 254 248 251 256 260 269
224 226 227 228 229 230 231 230 228 225 223 224 226 225 233 233 234 242 242 246 251 251 259 254 255 258 260 256 260 262 256 254 251 250 254 257 266 268
224 225 227 228 228 227 229 230 225 223 225 224 226 226 231 233 229 236 243 243 242 244 252 254 260 258 261 255 262 260 255 256 252 254 260 264 263 266
223 224 226 228 227 225 225 227 223 222 223 224 222 223 227 226 232 235 240 238 239 243 247 249 253 255 258 261 262 261 262 262 261 261 264 266 267 270
222 223 224 225 227 223 224 226 225 222 221 224 221 219 224 227 228 234 235 237 244 241 245 247 247 252 255 259 260 264 264 266 269 270 267 269 270 269
221 224 224 223 225 222 225 226 226 224 224 224 221 229 226 229 235 234 235 242 245 242 245 246 248 253 255 255 259 262 263 266 268 269 268 270 270 271
221 223 225 224 222 223 225 226 225 225 224 224 224 228 232 235 236 239 242 242 242 245 243 246 250 254 255 258 260 261 265 267 268 269 266 270 273 275
222 226 227 225 224 223 227 227 225 225 226 227 225 228 232 236 238 240 242 244 245 247 247 251 252 254 254 256 258 260 262 264 267 269 268 271 271 273
227 228 228 230 227 227 228 228 227 226 228 227 228 230 233 235 239 243 244 245 246 247 247 250 254 255 257 258 259 262 265 265 267 268 270 272 273 274
229 230 232 233 232 231 232 231 230 228 229 230 231 231 233 234 238 243 245 247 248 249 251 253 253 254 257 259 261 262 263 263 266 268 269 271 271 273
234 236 235 235 236 236 236 236 234 234 232 232 231 233 235 238 240 244 246 247 248 251 251 252 253 254 256 258 260 260 262 265 267 269 270 271 272 273
241 242 243 242 241 240 240 238 239 238 236 236 235 234 237 239 241 244 245 247 249 251 252 254 256 258 261 261 263 264 265 265 267 269 269 270 271 273
248 248 248 246 246 246 245 243 242 241 242 241 241 238 239 240 242 243 245 247 249 249 252 255 256 257 259 262 264 265 265 266 268 269 270 270 269 270
252 251 251 250 249 249 249 247 245 244 244 245 245 245 243 243 244 245 248 249 250 250 253 254 257 259 260 261 263 265 266 266 267 268 269 270 271 271
257 257 257 256 256 255 254 253 252 250 250 250 249 249 250 251 250 250 250 250 251 252 254 256 258 261 262 263 265 267 268 269 268 269 269 269 270 270
270 269 267 267 266 264 262 259 258 256 254 253 253 252 253 253 254 253 254 255 255 255 256 258 259 260 261 262 264 265 267 268 268 268 269 269 270 271
271 270 269 268 266 265 264 263 262 261 259 257 255 254 254 254 254 254 254 255 255 256 256 257 257 259 260 262 264 265 265 266 267 268 270 271 271 272
280 279 277 274 271 268 266 265 263 262 261 260 258 257 257 256 256 257 257 258 258 258 259 259 259 260 261 263 264 266 268 267 268 270 271 271 271 271
288 286 283 280 277 275 272 269 266 263 262 260 260 260 259 259 259 258 258 258 259 260 261 262 264 265 266 267 268 269 271 271 271 271 271 271 270 270
290 288 284 282 281 278 276 273 271 269 267 266 264 262 260 258 258 258 258 259 260 261 261 261 262 263 264 265 265 266 267 267 267 267 270 269 268 267
Height
10413 10429 10441 10451 10463 10477 10489 10501 10515 10523 10528 10535 10545 10549 10554 10559 10569 10575 10581 10588 10591 10597 10602 10607 10611 10614 10618 10622 10625 10628 10633 10638 10641 10645 10649 10650 10648 10649
10393 10406 10420 10434 10445 10456 10468 10482 10496 10505 10509 10523 10529 10534 10539 10545 10551 10560 10565 10571 10577 10582 10586 10591 10595 10600 10603 10606 10610 10614 10620 10624 10628 10632 10634 10638 10637 10640
10374 10385 10400 10413 10423 10435 10448 10464 10476 10482 10493 10509 10512 10517 10524 10529 10534 10544 10550 10557 10562 10566 10571 10575 10580 10584 10586 10591 10596 10601 10605 10609 10614 10618 10620 10622 10625 10626
10353 10365 10377 10389 10403 10416 10430 10444 10454 10464 10475 10487 10495 10501 10508 10513 10519 10529 10536 10542 10547 10549 10554 10560 10565 10569 10573 10576 10582 10586 10590 10593 10599 10603 10605 10609 10610 10612
10336 10346 10358 10369 10385 10399 10413 10422 10434 10446 10455 10468 10479 10487 10493 10499 10506 10514 10521 10526 10531 10535 10540 10544 10549 10553 10557 10560 10565 10570 10575 10579 10584 10588 10592 10596 10597 10599
10321 10332 10342 10353 10368 10382 10397 10404 10416 10428 10437 10451 10460 10468 10476 10485 10490 10498 10504 10512 10514 10519 10523 10526 10528 10533 10538 10543 10548 10555 10560 10564 10569 10573 10577 10578 10581 10584
10307 10317 10328 10339 10350 10367 10378 10387 10398 10408 10419 10432 10441 10450 10458 10465 10472 10479 10485 10491 10496 10501 10507 10509 10510 10513 10518 10522 10529 10536 10541 10545 10550 10554 10557 10560 10563 10567
10295 10305 10315 10326 10335 10350 10358 10370 10380 10392 10402 10413 10422 10430 10436 10444 10452 10459 10465 10470 10476 10480 10488 10488 10489 10493 10497 10503 10507 10513 10518 10523 10529 10533 10537 10542 10545 10546
10283 10292 10303 10313 10322 10333 10340 10352 10363 10373 10383 10394 10403 10410 10419 10424 10432 10440 10445 10452 10454 10461 10465 10465 10471 10474 10478 10483 10488 10492 10498 10502 10507 10512 10516 10520 10524 10527
10270 10279 10290 10300 10308 10317 10325 10334 10345 10353 10364 10374 10384 10391 10397 10404 10409 10417 10425 10429 10435 10440 10445 10447 10450 10456 10460 10461 10465 10470 10474 10480 10485 10489 10493 10496 10499 10504
10261 10268 10277 10285 10293 10302 10311 10319 10329 10335 10344 10353 10364 10370 10376 10382 10387 10393 10402 10406 10413 10419 10424 10425 10429 10434 10437 10440 10444 10448 10452 10459 10464 10469 10471 10473 10477 10483
10253 10258 10265 10273 10280 10287 10294 10302 10310 10317 10324 10332 10342 10350 10356 10362 10366 10371 10379 10386 10390 10396 10401 10404 10405 10407 10410 10417 10421 10425 10431 10434 10437 10442 10445 10449 10453 10457
10242 10247 10253 10258 10264 10271 10278 10284 10291 10298 10305 10313 10320 10326 10334 10342 10346 10350 10356 10362 10368 10372 10376 10379 10384 10385 10386 10391 10395 10401 10404 10410 10414 10418 10422 10424 10427 10431
10231 10235 10238 10242 10248 10253 10260 10265 10271 10276 10284 10290 10298 10305 10312 10318 10324 10327 10332 10339 10344 10349 10351 10354 10357 10361 10364 10366 10366 10373 10377 10380 10385 10387 10392 10396 10399 10400
10220 10221 10224 10228 10232 10236 10240 10244 10248 10253 10260 10267 10275 10281 10288 10293 10299 10304 10308 10314 10318 10323 10327 10330 10333 10336 10339 10341 10338 10340 10346 10352 10356 10360 10365 10367 10368 10370
10205 10207 10208 10210 10213 10216 10220 10224 10228 10233 10238 10244 10250 10256 10261 10266 10271 10277 10282 10286 10293 10296 10300 10303 10305 10308 10311 10314 10312 10313 10319 10317 10319 10325 10330 10330 10334 10336
10188 10189 10189 10190 10193 10196 10199 10203 10208 10212 10216 10221 10226 10232 10236 10241 10247 10251 10255 10259 10263 10269 10272 10273 10275 10276 10277 10280 10281 10282 10282 10284 10284 10284 10289 10289 10289 10292
10169 10170 10171 10173 10175 10177 10180 10184 10188 10192 10197 10201 10205 10209 10213 10218 10222 10226 10230 10232 10234 10239 10245 10246 10246 10245 10243 10243 10245 10242 10246 10250 10244 10239 10239 10247 10243 10243
10153 10154 10154 10154 10156 10158 10161 10163 10166 10170 10173 10176 10179 10183 10187 10190 10193 10196 10198 10200 10204 10209 10212 10212 10212 10213 10213 10210 10202 10209 10209 10203 10200 10196 10196 10199 10208 10200
10134 10133 10133 10133 10134 10136 10137 10138 10140 10142 10144 10148 10151 10154 10156 10159 10162 10164 10166 10168 10170 10173 10175 10174 10173 10174 10174 10170 10166 10163 10181 10171 10163 10157 10155 10159 10160 10163
10116 10115 10115 10115 10115 10116 10116 10117 10118 10120 10121 10123 10125 10128 10130 10132 10134 10136 10137 10139 10141 10141 10142 10141 10141 10143 10143 10141 10138 10131 10136 10145 10132 10124 10124 10125 10124 10124
10097 10096 10096 10095 10095 10096 10097 10098 10099 10100 10101 10102 10104 10105 10106 10107 10108 10109 10110 10111 10113 10114 10114 10114 10112 10111 10110 10108 10107 10103 10102 10106 10104 10094 10092 10093 10090 10089
10084 10082 10080 10079 10079 10079 10079 10079 10079 10080 10080 10081 10082 10083 10083 10084 10085 10086 10088 10089 10090 10090 10090 10089 10087 10086 10086 10085 10082 10080 10075 10075 10076 10072 10067 10064 10066 10063